FW1394 Weather Reports


Display with metric or nautical units.
time (UTC)temp
F
wind
direction
speed
MPH
gust
MPH
rain 1hr
in
rain 24hr
in
rain mn
in
humidity
%
barometer
mb
20260509212041 72 0 0.0 0.0 0.00 0.00 0.00 47 1019.9
20260509211552 72 0 0.0 0.0 0.00 0.00 0.00 47 1019.9
20260509211042 71 0 0.0 0.0 0.00 0.00 0.00 49 1020.1
20260509210539 71 0 0.0 0.0 0.00 0.00 0.00 50 1020.1
20260509210100 71 0 0.0 0.0 0.00 0.00 0.00 51 1020.2
20260509205541 71 0 0.0 0.0 0.00 0.00 0.00 51 1020.1
20260509205041 71 0 0.0 0.0 0.00 0.00 0.00 49 1020.2
20260509204554 71 0 0.0 0.0 0.00 0.00 0.00 48 1020.2
20260509204041 72 0 0.0 0.0 0.00 0.00 0.00 47 1020.0
20260509203541 72 0 0.0 0.0 0.00 0.00 0.00 47 1020.0
20260509203055 73 0 0.0 0.0 0.00 0.00 0.00 48 1020.0
20260509202541 73 0 0.0 0.0 0.00 0.00 0.00 47 1020.0
20260509202045 73 0 0.0 0.0 0.00 0.00 0.00 46 1020.1
20260509201549 74 0 0.0 0.0 0.00 0.00 0.00 43 1020.2
20260509201041 74 0 0.0 0.0 0.00 0.00 0.00 46 1020.3
20260509200541 75 0 0.0 0.0 0.00 0.00 0.00 44 1020.3
20260509200056 75 0 0.0 0.0 0.00 0.00 0.00 45 1020.2
20260509195545 75 0 0.0 0.0 0.00 0.00 0.00 44 1020.2
20260509195042 75 0 0.0 0.0 0.00 0.00 0.00 44 1020.3
20260509194552 75 0 0.0 0.0 0.00 0.00 0.00 43 1020.4
20260509194041 75 0 0.0 0.0 0.00 0.00 0.00 44 1020.5
20260509193542 75 0 0.0 0.0 0.00 0.00 0.00 44 1020.6
20260509193053 74 0 0.0 0.0 0.00 0.00 0.00 48 1020.6
20260509192543 75 0 0.0 0.0 0.00 0.00 0.00 45 1020.6
20260509192042 75 0 0.0 0.0 0.00 0.00 0.00 43 1020.7
20260509191551 75 0 0.0 0.0 0.00 0.00 0.00 45 1020.8
20260509191041 75 0 0.0 0.0 0.00 0.00 0.00 44 1020.8
20260509190542 75 0 0.0 0.0 0.00 0.00 0.00 45 1020.9
20260509190058 75 0 0.0 0.0 0.00 0.00 0.00 45 1020.8
20260509185541 75 0 0.0 0.0 0.00 0.00 0.00 46 1020.9
20260509185042 75 0 0.0 0.0 0.00 0.00 0.00 45 1020.9
20260509184638 74 0 0.0 0.0 0.00 0.00 0.00 46 1020.9
20260509184045 74 0 0.0 0.0 0.00 0.00 0.00 45 1020.9
20260509183541 74 0 0.0 0.0 0.00 0.00 0.00 47 1020.9
20260509183059 74 0 0.0 0.0 0.00 0.00 0.00 48 1020.9
20260509182541 74 0 0.0 0.0 0.00 0.00 0.00 48 1020.9
20260509182041 73 0 0.0 0.0 0.00 0.00 0.00 49 1020.9
20260509181553 72 0 0.0 0.0 0.00 0.00 0.00 52 1021.0
20260509181041 72 0 0.0 0.0 0.00 0.00 0.00 51 1021.0
20260509180541 72 0 0.0 0.0 0.00 0.00 0.00 49 1021.2
20260509175544 71 0 0.0 0.0 0.00 0.00 0.00 51 1021.1
20260509175042 71 0 0.0 0.0 0.00 0.00 0.00 52 1021.1
20260509174549 70 0 0.0 0.0 0.00 0.00 0.00 51 1021.0
20260509174042 70 0 0.0 0.0 0.00 0.00 0.00 53 1021.1
20260509173540 69 0 0.0 0.0 0.00 0.00 0.00 53 1021.1
20260509173054 69 0 0.0 0.0 0.00 0.00 0.00 53 1021.1
20260509172542 68 0 0.0 0.0 0.00 0.00 0.00 55 1021.1
20260509172042 67 0 0.0 0.0 0.00 0.00 0.00 58 1021.3
20260509171556 67 0 0.0 0.0 0.00 0.00 0.00 58 1021.3
20260509171044 66 0 0.0 0.0 0.00 0.00 0.00 57 1021.3
20260509170541 65 0 0.0 0.0 0.00 0.00 0.00 59 1021.4
20260509170059 64 0 0.0 0.0 0.00 0.00 0.00 63 1021.5
20260509165539 63 0 0.0 0.0 0.00 0.00 0.00 63 1021.4
20260509165042 63 0 0.0 0.0 0.00 0.00 0.00 66 1021.5
20260509164551 63 0 0.0 0.0 0.00 0.00 0.00 67 1021.5
20260509164043 62 0 0.0 0.0 0.00 0.00 0.00 67 1021.4
20260509163539 62 0 0.0 0.0 0.00 0.00 0.00 65 1021.5
20260509163109 62 0 0.0 0.0 0.00 0.00 0.00 65 1021.5
20260509162544 62 0 0.0 0.0 0.00 0.00 0.00 67 1021.6
20260509162041 62 0 0.0 0.0 0.00 0.00 0.00 67 1021.6
20260509161550 62 0 0.0 0.0 0.00 0.00 0.00 69 1021.6
20260509161043 62 0 0.0 0.0 0.00 0.00 0.00 69 1021.8
20260509160541 62 0 0.0 0.0 0.00 0.00 0.00 68 1021.8
20260509160055 62 0 0.0 0.0 0.00 0.00 0.00 68 1021.9
20260509155543 62 0 0.0 0.0 0.00 0.00 0.00 67 1021.9
20260509155041 62 0 0.0 0.0 0.00 0.00 0.00 67 1021.9
20260509154550 63 0 0.0 0.0 0.00 0.00 0.00 66 1021.9
20260509154044 63 0 0.0 0.0 0.00 0.00 0.00 65 1022.0
20260509153541 63 0 0.0 0.0 0.00 0.00 0.00 64 1021.9
20260509153057 63 0 0.0 0.0 0.00 0.00 0.00 66 1021.9
20260509152542 63 0 0.0 0.0 0.00 0.00 0.00 66 1021.9
20260509152041 63 0 0.0 0.0 0.00 0.00 0.00 66 1021.8
20260509151554 62 0 0.0 0.0 0.00 0.00 0.00 68 1021.9
20260509151041 61 0 0.0 0.0 0.00 0.00 0.00 71 1022.0
20260509150538 60 0 0.0 0.0 0.00 0.00 0.00 73 1022.1
20260509150054 58 0 0.0 0.0 0.00 0.00 0.00 73 1022.2
20260509145542 57 0 0.0 0.0 0.00 0.00 0.00 77 1022.2
20260509145041 56 0 0.0 0.0 0.00 0.00 0.00 78 1022.3
20260509144558 55 0 0.0 0.0 0.00 0.00 0.00 82 1022.2
20260509144042 54 0 0.0 0.0 0.00 0.00 0.00 83 1022.1
20260509143542 53 0 0.0 0.0 0.00 0.00 0.00 84 1022.2
20260509143055 52 0 0.0 0.0 0.00 0.00 0.00 84 1022.2
20260509142542 52 0 0.0 0.0 0.00 0.00 0.00 86 1022.2
20260509142045 52 0 0.0 0.0 0.00 0.00 0.00 85 1022.4
20260509141601 52 0 0.0 0.0 0.00 0.00 0.00 86 1022.3
20260509141045 51 0 0.0 0.0 0.00 0.00 0.00 86 1022.5
20260509140541 51 0 0.0 0.0 0.00 0.00 0.00 86 1022.4
20260509140100 51 0 0.0 0.0 0.00 0.00 0.00 86 1022.3
20260509135541 51 0 0.0 0.0 0.00 0.00 0.00 87 1022.5
20260509135042 51 0 0.0 0.0 0.00 0.00 0.00 85 1022.4
20260509134551 50 0 0.0 0.0 0.00 0.00 0.00 85 1022.3
20260509134041 50 0 0.0 0.0 0.00 0.00 0.00 85 1022.3
20260509133541 50 0 0.0 0.0 0.00 0.00 0.00 85 1022.4
20260509133052 50 0 0.0 0.0 0.00 0.00 0.00 85 1022.2
20260509132541 50 0 0.0 0.0 0.00 0.00 0.00 85 1022.2
20260509132041 50 0 0.0 0.0 0.00 0.00 0.00 85 1022.2
20260509131551 50 0 0.0 0.0 0.00 0.00 0.00 85 1022.3
20260509131041 50 0 0.0 0.0 0.00 0.00 0.00 85 1022.2
20260509130544 50 0 0.0 0.0 0.00 0.00 0.00 85 1022.2
20260509130059 50 0 0.0 0.0 0.00 0.00 0.00 85 1022.2
20260509125542 50 0 0.0 0.0 0.00 0.00 0.00 85 1022.1
20260509125043 50 0 0.0 0.0 0.00 0.00 0.00 85 1022.0
20260509124558 50 0 0.0 0.0 0.00 0.00 0.00 85 1022.1
20260509124041 50 0 0.0 0.0 0.00 0.00 0.00 86 1022.3
20260509123541 50 0 0.0 0.0 0.00 0.00 0.00 85 1022.3
20260509123057 50 0 0.0 0.0 0.00 0.00 0.00 85 1022.3
20260509122541 50 0 0.0 0.0 0.00 0.00 0.00 85 1022.4
20260509122042 50 0 0.0 0.0 0.00 0.00 0.00 85 1022.4
20260509121552 50 0 0.0 0.0 0.00 0.00 0.00 85 1022.5
20260509121041 50 0 0.0 0.0 0.00 0.00 0.00 85 1022.4
20260509120542 50 0 0.0 0.0 0.00 0.00 0.00 85 1022.5
20260509120054 50 0 0.0 0.0 0.00 0.00 0.00 84 1022.4
20260509115542 50 0 0.0 0.0 0.00 0.00 0.00 84 1022.5
20260509115040 50 0 0.0 0.0 0.00 0.00 0.00 84 1022.5
20260509114552 50 0 0.0 0.0 0.00 0.00 0.00 84 1022.5
20260509114115 50 0 0.0 0.0 0.00 0.00 0.00 84 1022.5
20260509113543 50 0 0.0 0.0 0.00 0.00 0.00 84 1022.6
20260509113100 50 0 0.0 0.0 0.00 0.00 0.00 84 1022.5
20260509112542 50 0 0.0 0.0 0.00 0.00 0.00 83 1022.6
20260509112041 50 0 0.0 0.0 0.00 0.00 0.00 84 1022.5
20260509111555 50 0 0.0 0.0 0.00 0.00 0.00 83 1022.5
20260509111042 50 0 0.0 0.0 0.00 0.00 0.00 83 1022.6
20260509110545 50 0 0.0 0.0 0.00 0.00 0.00 83 1022.5
20260509110049 50 0 0.0 0.0 0.00 0.00 0.00 83 1022.5
20260509105541 50 0 0.0 0.0 0.00 0.00 0.00 82 1022.5
20260509105042 50 0 0.0 0.0 0.00 0.00 0.00 82 1022.4
20260509104556 50 0 0.0 0.0 0.00 0.00 0.00 82 1022.5
20260509104040 51 0 0.0 0.0 0.00 0.00 0.00 82 1022.5
20260509103542 51 0 0.0 0.0 0.00 0.00 0.00 83 1022.4
20260509103056 51 0 0.0 0.0 0.00 0.00 0.00 82 1022.4
20260509102542 51 0 0.0 0.0 0.00 0.00 0.00 82 1022.4
20260509102042 51 0 0.0 0.0 0.00 0.00 0.00 83 1022.5
20260509101551 51 0 0.0 0.0 0.00 0.00 0.00 83 1022.4
20260509101043 51 0 0.0 0.0 0.00 0.00 0.00 82 1022.4
20260509100541 51 0 0.0 0.0 0.00 0.00 0.00 82 1022.3
20260509100108 51 0 0.0 0.0 0.00 0.00 0.00 82 1022.4
20260509095542 51 0 0.0 0.0 0.00 0.00 0.00 82 1022.3
20260509095041 51 0 0.0 0.0 0.00 0.00 0.00 82 1022.2
20260509094554 51 0 0.0 0.0 0.00 0.00 0.00 81 1022.2
20260509094041 51 0 0.0 0.0 0.00 0.00 0.00 82 1022.2
20260509093542 51 0 0.0 0.0 0.00 0.00 0.00 82 1022.2
20260509093047 51 0 0.0 0.0 0.00 0.00 0.00 82 1022.2
20260509092543 50 0 0.0 0.0 0.00 0.00 0.00 82 1022.2
20260509092040 50 0 0.0 0.0 0.00 0.00 0.00 82 1022.3
20260509091603 50 0 0.0 0.0 0.00 0.00 0.00 81 1022.3
20260509091041 50 0 0.0 0.0 0.00 0.00 0.00 82 1022.3
20260509090541 50 0 0.0 0.0 0.00 0.00 0.00 82 1022.3
20260509090051 50 0 0.0 0.0 0.00 0.00 0.00 82 1022.2
20260509085540 50 0 0.0 0.0 0.00 0.00 0.00 82 1022.3
20260509085044 50 0 0.0 0.0 0.00 0.00 0.00 82 1022.4
20260509084551 50 0 0.0 0.0 0.00 0.00 0.00 83 1022.3
20260509084041 50 0 0.0 0.0 0.00 0.00 0.00 82 1022.4
20260509083541 50 0 0.0 0.0 0.00 0.00 0.00 82 1022.4
20260509083048 50 0 0.0 0.0 0.00 0.00 0.00 82 1022.5
20260509082541 50 0 0.0 0.0 0.00 0.00 0.00 82 1022.5
20260509082041 50 0 0.0 0.0 0.00 0.00 0.00 82 1022.5
20260509081559 50 0 0.0 0.0 0.00 0.00 0.00 81 1022.5
20260509081041 50 0 0.0 0.0 0.00 0.00 0.00 80 1022.4
20260509080541 50 0 0.0 0.0 0.00 0.00 0.00 80 1022.5
20260509080051 50 0 0.0 0.0 0.00 0.00 0.00 79 1022.5
20260509075541 51 0 0.0 0.0 0.00 0.00 0.00 79 1022.5
20260509075041 51 0 0.0 0.0 0.00 0.00 0.00 79 1022.5
20260509074554 51 0 0.0 0.0 0.00 0.00 0.00 79 1022.4
20260509074040 51 0 0.0 0.0 0.00 0.00 0.00 78 1022.4
20260509073541 51 0 0.0 0.0 0.00 0.00 0.00 78 1022.5
20260509073049 51 0 0.0 0.0 0.00 0.00 0.00 78 1022.4
20260509072543 51 0 0.0 0.0 0.00 0.00 0.00 78 1022.4
20260509072042 51 0 0.0 0.0 0.00 0.00 0.00 77 1022.4
20260509071547 51 0 0.0 0.0 0.00 0.00 0.00 77 1022.5
20260509071041 51 0 0.0 0.0 0.00 0.00 0.00 77 1022.4
20260509070542 51 0 0.0 0.0 0.00 0.00 0.00 77 1022.4
20260509070054 52 0 0.0 0.0 0.00 0.00 0.00 77 1022.4
20260509065541 52 0 0.0 0.0 0.00 0.00 0.00 76 1022.4
20260509065041 52 0 0.0 0.0 0.00 0.00 0.00 75 1022.3
20260509064550 52 0 0.0 0.0 0.00 0.00 0.00 75 1022.4
20260509064042 52 0 0.0 0.0 0.00 0.00 0.00 75 1022.4
20260509063540 52 0 0.0 0.0 0.00 0.00 0.00 74 1022.4
20260509063059 53 0 0.0 0.0 0.00 0.00 0.00 75 1022.4
20260509062541 53 0 0.0 0.0 0.00 0.00 0.00 74 1022.4
20260509062042 53 0 0.0 0.0 0.00 0.00 0.00 73 1022.3
20260509061604 53 0 0.0 0.0 0.00 0.00 0.00 73 1022.4
20260509061040 53 0 0.0 0.0 0.00 0.00 0.00 73 1022.4
20260509060541 53 0 0.0 0.0 0.00 0.00 0.00 74 1022.4
20260509060058 53 0 0.0 0.0 0.00 0.00 0.00 73 1022.4
20260509055544 53 0 0.0 0.0 0.00 0.00 0.00 74 1022.4
20260509055042 53 0 0.0 0.0 0.00 0.00 0.00 73 1022.4
20260509054557 53 0 0.0 0.0 0.00 0.00 0.00 72 1022.5
20260509054042 53 0 0.0 0.0 0.00 0.00 0.00 72 1022.5
20260509053542 53 0 0.0 0.0 0.00 0.00 0.00 72 1022.4
20260509053058 53 0 0.0 0.0 0.00 0.00 0.00 72 1022.4
20260509052542 53 0 0.0 0.0 0.00 0.00 0.00 71 1022.4
20260509052040 53 0 0.0 0.0 0.00 0.00 0.00 71 1022.4
20260509051555 53 0 0.0 0.0 0.00 0.00 0.00 71 1022.4
20260509051045 54 0 0.0 0.0 0.00 0.00 0.00 70 1022.3
20260509050542 54 0 0.0 0.0 0.00 0.00 0.00 70 1022.3
20260509050054 54 0 0.0 0.0 0.00 0.00 0.00 71 1022.3
20260509045542 54 0 0.0 0.0 0.00 0.00 0.00 71 1022.3
20260509045041 54 0 0.0 0.0 0.00 0.00 0.00 70 1022.4
20260509044556 54 0 0.0 0.0 0.00 0.00 0.00 70 1022.3
20260509044040 54 0 0.0 0.0 0.00 0.00 0.00 70 1022.4
20260509043545 54 0 0.0 0.0 0.00 0.00 0.00 70 1022.3
20260509043047 54 0 0.0 0.0 0.00 0.00 0.00 70 1022.2
20260509042541 54 0 0.0 0.0 0.00 0.00 0.00 70 1022.2
20260509042043 54 0 0.0 0.0 0.00 0.00 0.00 70 1022.1
20260509041549 54 0 0.0 0.0 0.00 0.00 0.00 70 1022.0
20260509041041 54 0 0.0 0.0 0.00 0.00 0.00 69 1021.8
20260509040540 54 0 0.0 0.0 0.00 0.00 0.00 68 1021.9
20260509040058 54 0 0.0 0.0 0.00 0.00 0.00 68 1021.8
20260509035542 54 0 0.0 0.0 0.00 0.00 0.00 67 1021.9
20260509035042 54 0 0.0 0.0 0.00 0.00 0.00 68 1021.9
20260509034559 55 0 0.0 0.0 0.00 0.00 0.00 67 1021.9
20260509034041 55 0 0.0 0.0 0.00 0.00 0.00 67 1021.7
20260509033543 55 0 0.0 0.0 0.00 0.00 0.00 67 1021.8
20260509033055 55 0 0.0 0.0 0.00 0.00 0.00 66 1021.7
20260509032542 55 0 0.0 0.0 0.00 0.00 0.00 66 1021.7
20260509032044 55 0 0.0 0.0 0.00 0.00 0.00 65 1021.7
20260509031553 55 0 0.0 0.0 0.00 0.00 0.00 65 1021.7
20260509031041 55 0 0.0 0.0 0.00 0.00 0.00 65 1021.7
20260509030541 55 0 0.0 0.0 0.00 0.00 0.00 64 1021.7
20260509030048 55 0 0.0 0.0 0.00 0.00 0.00 64 1021.6
20260509025541 55 0 0.0 0.0 0.00 0.00 0.00 64 1021.5
20260509025041 56 0 0.0 0.0 0.00 0.00 0.00 63 1021.5
20260509024545 56 0 0.0 0.0 0.00 0.00 0.00 63 1021.4
20260509024041 56 0 0.0 0.0 0.00 0.00 0.00 62 1021.4
20260509023540 56 0 0.0 0.0 0.00 0.00 0.00 62 1021.4
20260509023051 56 0 0.0 0.0 0.00 0.00 0.00 62 1021.4
20260509022540 56 0 0.0 0.0 0.00 0.00 0.00 62 1021.4
20260509022042 56 0 0.0 0.0 0.00 0.00 0.00 63 1021.4
20260509021551 56 0 0.0 0.0 0.00 0.00 0.00 63 1021.4
20260509021039 56 0 0.0 0.0 0.00 0.00 0.00 63 1021.4
20260509020541 56 0 0.0 0.0 0.00 0.00 0.00 63 1021.3
20260509020050 56 0 0.0 0.0 0.00 0.00 0.00 63 1021.4
20260509015541 56 0 0.0 0.0 0.00 0.00 0.00 63 1021.4
20260509015042 56 0 0.0 0.0 0.00 0.00 0.00 63 1021.5
20260509014551 56 0 0.0 0.0 0.00 0.00 0.00 63 1021.5
20260509014040 57 0 0.0 0.0 0.00 0.00 0.00 63 1021.5
20260509013541 57 0 0.0 0.0 0.00 0.00 0.00 62 1021.4
20260509013054 57 0 0.0 0.0 0.00 0.00 0.00 62 1021.4
20260509012543 57 0 0.0 0.0 0.00 0.00 0.00 62 1021.4
20260509012041 57 0 0.0 0.0 0.00 0.00 0.00 62 1021.5
20260509011551 57 0 0.0 0.0 0.00 0.00 0.00 62 1021.4
20260509011040 58 0 0.0 0.0 0.00 0.00 0.00 62 1021.3
20260509010540 58 0 0.0 0.0 0.00 0.00 0.00 61 1021.4
20260509010052 58 0 0.0 0.0 0.00 0.00 0.00 61 1021.3
20260509005542 58 0 0.0 0.0 0.00 0.00 0.00 61 1021.4
20260509005040 58 0 0.0 0.0 0.00 0.00 0.00 61 1021.4
20260509004553 58 0 0.0 0.0 0.00 0.00 0.00 61 1021.4
20260509004039 59 0 0.0 0.0 0.00 0.00 0.00 60 1021.3
20260509003541 59 0 0.0 0.0 0.00 0.00 0.00 61 1021.4
20260509003052 59 0 0.0 0.0 0.00 0.00 0.00 62 1021.4
20260509002541 59 0 0.0 0.0 0.00 0.00 0.00 61 1021.3
20260509002041 59 0 0.0 0.0 0.00 0.00 0.00 59 1021.3
20260509001551 59 0 0.0 0.0 0.00 0.00 0.00 60 1021.3
20260509001041 59 0 0.0 0.0 0.00 0.00 0.00 60 1021.3
20260509000542 59 0 0.0 0.0 0.00 0.00 0.00 61 1021.4
20260509000045 59 0 0.0 0.0 0.00 0.00 0.00 59 1021.4
20260508235542 59 0 0.0 0.0 0.00 0.00 0.00 60 1021.3
20260508235040 59 0 0.0 0.0 0.00 0.00 0.00 59 1021.3
20260508234555 59 0 0.0 0.0 0.00 0.00 0.00 59 1021.3
20260508234042 59 0 0.0 0.0 0.00 0.00 0.00 58 1021.3
20260508233541 59 0 0.0 0.0 0.00 0.00 0.00 58 1021.2
20260508233102 60 0 0.0 0.0 0.00 0.00 0.00 58 1021.2
20260508232541 60 0 0.0 0.0 0.00 0.00 0.00 59 1021.2
20260508232042 60 0 0.0 0.0 0.00 0.00 0.00 57 1021.2
20260508231631 60 0 0.0 0.0 0.00 0.00 0.00 57 1021.3
20260508231041 60 0 0.0 0.0 0.00 0.00 0.00 58 1021.2
20260508230541 60 0 0.0 0.0 0.00 0.00 0.00 58 1021.2
20260508230100 60 0 0.0 0.0 0.00 0.00 0.00 60 1021.1
20260508225542 60 0 0.0 0.0 0.00 0.00 0.00 58 1021.0
20260508225042 60 0 0.0 0.0 0.00 0.00 0.00 58 1021.0
20260508224559 60 0 0.0 0.0 0.00 0.00 0.00 57 1021.1
20260508224041 60 0 0.0 0.0 0.00 0.00 0.00 56 1021.2
20260508223541 60 0 0.0 0.0 0.00 0.00 0.00 57 1021.2
20260508223048 61 0 0.0 0.0 0.00 0.00 0.00 54 1021.0
20260508222540 61 0 0.0 0.0 0.00 0.00 0.00 54 1021.1
20260508222041 61 0 0.0 0.0 0.00 0.00 0.00 57 1021.1
20260508221552 61 0 0.0 0.0 0.00 0.00 0.00 56 1021.0
20260508221041 61 0 0.0 0.0 0.00 0.00 0.00 56 1021.0
20260508220541 61 0 0.0 0.0 0.00 0.00 0.00 57 1021.0
20260508220053 61 0 0.0 0.0 0.00 0.00 0.00 57 1021.1
20260508215540 61 0 0.0 0.0 0.00 0.00 0.00 58 1021.0
20260508215040 60 0 0.0 0.0 0.00 0.00 0.00 58 1021.1
20260508214624 60 0 0.0 0.0 0.00 0.00 0.00 58 1021.1
20260508214045 60 0 0.0 0.0 0.00 0.00 0.00 58 1021.1
20260508213541 61 0 0.0 0.0 0.00 0.00 0.00 58 1021.0
20260508213051 61 0 0.0 0.0 0.00 0.00 0.00 59 1021.0
20260508212541 61 0 0.0 0.0 0.00 0.00 0.00 58 1021.0
20260508212046 61 0 0.0 0.0 0.00 0.00 0.00 57 1020.9